Location: La Cheirade
(46.1116°N, 1.5187°E)
Time: 00:57:11
(UTC+00:00)

Daily predictions for brighter satellites

Satellite Brightness Start Highest point End
(mag) Time Altitude Azimuth Time Altitude Azimuth Time Altitude Azimuth
CENTAUR R/B 4.5 01:54:31 10° NNW 02:01:21 33° NNE 02:08:56 10° E
ADEOS II 4.3 02:16:00 10° NNE 02:17:29 20° NNE 02:17:29 20° NNE
USA 234 4.3 02:20:13 10° ESE 02:24:10 38° E 02:24:10 38° E
Lacrosse 5 4.1 02:40:09 20° E 02:40:09 20° E 02:41:53 10° E
Cosmos 2082 Rocket 4.1 02:42:36 22° N 02:42:36 22° N 02:44:56 10° NNE
Cosmos 2333 Rocket 4.3 02:39:29 10° N 02:44:11 25° NE 02:48:51 10° ESE
Cosmos 2219 Rocket 4.1 02:54:29 10° N 02:59:14 26° NE 03:03:57 10° ESE
CZ-2C R/B 4.1 02:58:06 10° NE 03:02:02 26° E 03:02:02 26° E
USA 238 DEB 4.2 03:06:13 10° NW 03:13:22 62° NE 03:20:49 10° SE
USA 238 4.2 03:06:19 10° NW 03:13:28 61° NE 03:20:55 10° SE
ATLAS 5 CENTAUR R/B 4.2 03:19:17 11° ESE 03:19:57 11° ESE 03:21:21 10° E
S3M 4.0 03:21:13 69° SE 03:21:41 73° E 03:27:53 10° NNE
ARIANE 5 R/B 3.5 03:20:09 10° N 03:23:22 40° N 03:23:22 40° N
Cosmos 1745 Rocket 3.9 03:19:23 10° N 03:25:45 85° E 03:26:32 70° SSE
USA 267 3.3 03:28:40 10° NE 03:35:06 62° NNW 03:35:57 57° WNW
Cosmos 2322 4.3 03:30:58 10° NNW 03:36:35 56° ENE 03:42:08 10° SE
Cosmos 1709 Rocket 4.4 03:31:07 10° N 03:37:29 63° E 03:43:47 10° SSE
H-2A R/B 4.2 03:38:45 10° ESE 03:42:11 25° ENE 03:45:34 10° N
NOSS 3-2 (A) 3.9 03:34:37 10° NW 03:42:11 85° SW 03:50:45 10° SSE
Spot 4 Rocket 4.0 03:41:48 10° N 03:46:28 68° NNW 03:46:28 68° NNW
COSMOS 2487 4.2 03:50:12 30° NE 03:50:12 30° NE 03:52:09 10° NNE
Cosmos 2344 3.4 03:46:42 51° SW 03:48:52 86° NW 03:56:52 10° NE
Cosmos 1833 4.0 03:48:28 73° SSW 03:49:03 89° WNW 03:54:44 10° NNE
Cosmos 1386 Rocket 4.4 03:46:22 10° NNW 03:52:42 64° W 03:53:42 56° SW
CENTAUR R/B 3.2 03:45:07 10° NW 03:53:15 83° NE 04:02:11 10° SE
Cosmos 2251 Rocket 3.6 03:53:53 52° S 03:55:09 76° ESE 04:00:33 10° NNE
ISS -2.3 04:00:41 37° NE 04:00:41 37° NE 04:03:12 10° E
Cosmos 2360 Rocket 4.0 04:04:24 16° S 04:04:24 16° S 04:05:27 10° S
ADEOS II 4.2 03:57:13 10° NNW 03:58:25 13° NNW 03:58:25 13° NNW
IDEFIX/ARIANE 42P 3.9 03:57:35 10° N 04:00:31 24° NW 04:00:31 24° NW
Meteor 2-17 Rocket 4.4 03:56:48 10° N 04:02:53 81° E 04:08:57 10° S
ALOS 3.0 03:58:52 10° NNE 04:03:28 52° E 04:07:02 16° S
PAYLOAD A 4.0 03:58:23 10° N 04:03:43 77° WNW 04:05:04 52° SW
CZ-2C R/B 3.9 04:01:56 10° N 04:04:15 33° N 04:04:15 33° N
Cosmos 2237 Rocket 4.1 04:02:08 10° N 04:07:02 28° NE 04:11:53 10° ESE
Cosmos 2333 4.1 04:01:55 10° NNW 04:07:43 79° WSW 04:13:30 10° SSE
USA 234 3.4 04:03:28 10° SSE 04:09:46 50° SW 04:11:34 40° W
CZ-4C R/B 2.6 04:10:13 27° S 04:12:41 52° ESE 04:18:17 10° NE
Cosmos 883 Rocket 4.3 04:11:11 29° SSW 04:14:28 72° W 04:20:36 10° N
USA 276 2.8 04:16:02 53° ENE 04:16:02 53° ENE 04:18:37 10° ENE
PSLV R/B 3.4 04:11:43 10° NNE 04:16:08 84° WNW 04:17:21 47° SSW
GENESIS II 4.5 04:17:05 55° NNW 04:17:05 55° NNW 04:20:46 10° NNE
Lacrosse 5 1.8 04:19:24 50° W 04:20:20 58° SW 04:25:17 10° SSE
NOSS 3-4 (A) 3.9 04:16:30 18° SSW 04:20:40 55° ESE 04:26:45 10° NE
NOSS 3-4 (C) 3.9 04:16:34 18° SSW 04:20:47 55° ESE 04:26:51 10° NE
NOSS 3-2 (C) 4.0 04:16:39 10° NW 04:24:14 78° SW 04:32:48 10° SSE
Cosmos 2221 4.2 04:30:19 20° NW 04:30:19 20° NW 04:32:18 10° NNW
Cosmos 2333 Rocket 2.1 04:23:15 10° NNW 04:28:59 68° WSW 04:34:41 10° SSE
Cosmos 1484 Rocket 2.6 04:29:20 10° NNE 04:33:04 85° ESE 04:35:27 21° S
Cosmos 1805 Rocket 3.7 04:29:19 10° NNW 04:33:40 52° W 04:37:58 10° S
Cosmos 1437 Rocket 3.9 04:29:54 10° S 04:33:48 46° E 04:37:39 10° NNE
ATLAS 2AS CENTAUR R/B 3.7 04:28:16 10° SSW 04:35:54 55° ESE 04:43:28 10° NE
Landsat 5 3.3 04:32:35 10° S 04:36:20 54° W 04:40:12 10° NNW
SJ-6F 4.4 04:32:25 10° NNE 04:36:38 87° W 04:40:19 13° SSW
Cosmos 2315 Rocket 4.0 04:34:41 14° SSW 04:39:54 57° WNW 04:46:01 10° N
CZ-2C R/B 2.8 04:36:02 10° N 04:40:24 37° WNW 04:41:25 33° W
CZ-4B R/B 3.3 04:37:51 10° SE 04:40:36 30° ENE 04:43:19 10° N
COSMO-SKYMED 1 3.5 04:37:21 10° SE 04:41:32 50° ENE 04:45:45 10° N
Cosmos 2297 Rocket 4.1 04:36:42 10° SSE 04:41:33 30° ESE 04:46:25 10° NE
Cosmos 2219 Rocket 2.2 04:38:00 10° NNW 04:43:35 60° WSW 04:49:09 10° S
Cosmos 1782 3.5 04:39:54 10° S 04:43:45 55° E 04:47:38 10° NNE
Cosmos 1606 3.6 04:47:57 29° WNW 04:47:57 29° WNW 04:51:15 10° NNW
CBERS 1 LM4 rocket 4.2 04:43:23 10° NNE 04:48:11 78° WNW 04:52:54 10° SSW
Cosmos 1140 Rocket 3.7 04:44:01 10° SSW 04:49:12 74° ESE 04:54:23 10° NNE
Sich 1 3.3 04:46:04 10° NNW 04:50:17 45° W 04:54:27 10° SSW
Cosmos 1980 4.3 04:46:40 10° NNW 04:52:17 59° ENE 04:57:52 10° SE
Meteor 1-26 Rocket 4.4 04:46:44 10° S 04:52:27 79° E 04:58:23 10° NNE
METEOR-M 4.0 04:48:52 10° N 04:54:12 73° WNW 04:59:31 10° SSW
Cosmos 1666 Rocket 3.5 04:53:09 10° NNW 04:57:29 62° W 05:01:49 10° S
Cosmos 2074 Rocket 3.9 04:52:06 10° N 04:58:21 84° W 05:04:32 10° S
COSMOS 2428 2.8 04:54:41 10° NW 05:00:13 53° WSW 05:05:45 10° S
MOS 1 Rocket 3.2 04:56:14 10° SSE 05:00:38 86° ENE 05:05:19 10° NNW
Cosmos 1023 Rocket 4.4 04:55:43 10° SSW 05:00:55 86° WNW 05:06:06 10° NNE
SeaSat 1 2.5 04:56:07 10° SSE 05:01:02 86° ENE 05:06:00 10° NNW
BREEZE M DEB (TANK) 2.5 04:59:34 23° WNW 05:01:14 75° NNE 05:08:10 10° ESE
BREEZE-M DEB (TANK) 3.1 05:00:37 20° WNW 05:03:23 48° N 05:05:49 10° ENE
ARIANE 5 R/B 4.4 05:01:43 10° NW 05:03:27 12° NW 05:03:43 12° WNW
CZ-4C R/B 4.2 05:04:28 22° WNW 05:04:28 22° WNW 05:06:32 10° NW
ATLAS 5 CENTAUR R/B 1.3 05:00:51 19° SW 05:03:40 75° NW 05:08:10 10° NE
USA 238 DEB 4.4 04:57:33 10° NW 05:04:06 37° WSW 05:10:52 10° S
USA 238 4.3 04:57:39 10° NW 05:04:13 37° WSW 05:11:00 10° S
Cosmos 2154 Rocket 4.3 04:59:32 10° N 05:05:48 75° E 05:12:04 10° SSE
ATLAS 3B R/B 3.4 05:01:20 10° NW 05:08:13 59° NE 05:15:23 10° SE
CZ-4B R/B 3.5 05:05:11 10° N 05:08:53 75° WNW 05:12:30 10° SSW
ADEOS 3.5 05:04:16 10° NNE 05:09:30 79° WNW 05:14:43 10° SSW
Cosmos 1602 3.8 05:07:21 10° NNW 05:11:13 56° W 05:15:01 10° S
FENGYUN 3A 4.2 05:10:14 10° N 05:15:13 38° WNW 05:20:11 10° SW
USA 267 4.2 05:11:37 10° NE 05:17:27 36° N 05:23:17 10° WNW
H-2A R/B 2.6 05:14:13 10° SSW 05:18:01 33° W 05:21:48 10° NNW
Cosmos 1151 Rocket 3.2 05:15:19 10° SSW 05:19:29 49° WNW 05:23:41 10° N
Cosmos 909 Rocket 4.3 05:14:58 11° WSW 05:21:01 50° NW 05:27:10 10° NNE
Cosmos 2219 3.9 05:15:46 10° S 05:21:18 59° ESE 05:26:51 10° NNE
COSMOS 2487 4.5 05:23:34 12° WNW 05:24:03 12° NW 05:25:26 10° NNW
NOSS 0 Rocket 4.0 05:18:04 10° NW 05:24:09 61° WSW 05:30:13 10° S
Cosmos 2184 Rocket 4.1 05:19:03 10° NNW 05:25:14 56° W 05:31:25 10° SSW
Meteor 2-12 Rocket 4.5 05:19:23 10° N 05:25:35 89° W 05:31:45 10° S
Cosmos 1633 Rocket 3.6 05:24:28 10° NNW 05:28:29 35° W 05:32:28 10° SSW
SKYMED 2 3.7 05:25:21 10° S 05:29:35 52° W 05:33:51 10° NNW
USA-17 4.4 05:28:15 10° SW 05:32:07 88° SE 05:35:16 10° NE
H-2A R/B 2.8 05:30:07 10° NNE 05:34:02 87° W 05:37:54 10° SSW
Cosmos 1242 Rocket 2.5 05:31:10 10° S 05:34:37 82° E 05:38:07 10° NNE
ISS -3.2 05:33:39 10° WNW 05:36:47 42° SW 05:39:59 10° SE
Cosmos 1812 2.6 05:35:58 10° SSW 05:39:48 79° W 05:43:40 10° N
ALOS 3.6 05:37:06 10° NNW 05:40:29 20° WNW 05:43:52 10° WSW
CZ-2C R/B 3.5 05:36:13 10° SSE 05:41:42 58° ENE 05:47:12 10° N
CENTAUR R/B 4.0 05:36:35 10° NW 05:43:32 30° WSW 05:50:49 10° SSW
BREEZE-M DEB (TANK) 3.7 05:42:43 10° NW 05:44:25 21° NNE 05:46:34 10° ENE
Meteor 1-11 Rocket 4.4 05:38:59 10° N 05:44:29 62° ENE 05:50:00 10° SSE
Meteor 1-31 Rocket 3.6 05:42:06 10° N 05:45:29 29° WNW 05:48:49 10° SW
Meteor 1-14 Rocket 4.4 05:41:02 10° NNW 05:46:30 51° W 05:52:04 10° SSW
Cosmos 1954 Rocket 4.0 05:42:41 10° SSW 05:47:55 66° WNW 05:53:09 10° NNE
RESURS DK-1 2.4 05:44:12 10° SSW 05:48:19 88° ESE 05:52:28 10° NNE
SAR-Lupe-4 3.6 05:46:51 10° SSE 05:50:25 87° ENE 05:54:00 10° NNW
Cosmos 2237 Rocket 2.3 05:45:53 10° NW 05:51:25 54° WSW 05:56:54 10° S
Cosmos 1869 Rocket 4.2 05:47:01 10° N 05:51:29 65° E 05:55:56 10° SSE
